Torna al catalogo

NINGXIA-1 6

AttivoScienzaLEO
NORAD 49018·PAYLOAD·🇨🇳 China

Lanciato Jul 9, 2021 da Taiyuan Satellite Launch Center

Loading…

Prossimi Passaggi (prossime 24 ore)

TLE

AggiornatoSource: Space-Track

Epoca: Sep 14, 2026, 15:27 UTC

1 49018U 21064A   26257.64431975  .00000141  00000-0  15762-3 0  9996
2 49018  44.9994 182.9506 0009084 297.9585  62.0332 14.08545107266825

Traccia NINGXIA-1 6 in tempo reale con AllMySat

Download on the App Store